El Dorado, AR

4:22 AM CDT on July 21, 2017 (GMT -0500)
South Arkansas Regional At Goodwin

Weather History for KELD - October, 2013

Change the Weather History Date:

Sunday, October 27, 2013

  Actual Average Record
Temperature  
Mean Temperature 59 °F 60 °F  
Max Temperature 66 °F 73 °F 89 °F (1927)
Min Temperature 51 °F 48 °F 30 °F (1957)
Degree Days  
Heating Degree Days 6 6  
Month to date heating degree days 111 94  
Since 1 July heating degree days 111 106  
Cooling Degree Days 0 2  
Month to date cooling degree days 72 79  
Year to date cooling degree days 2140 2106  
Growing Degree Days 8 (Base 50)    
Moisture  
Dew Point 54 °F    
Average Humidity 87    
Maximum Humidity 100    
Minimum Humidity 73    
Precipitation  
Precipitation 0.01 in 0.17 in 3.97 in (1947)
Month to date precipitation 2.82 4.53  
Year to date precipitation 32.76 42.19  
Snow  
Snow 0.00 in - - ()
Month to date snowfall 0.0  
Since 1 July snowfall 0.0  
Since 1 September snowfall 0.0  
Snow Depth 0.00 in    
Sea Level Pressure  
Sea Level Pressure 30.07 in    
Wind  
Wind Speed 3 mph (NW)    
Max Wind Speed 13 mph    
Max Gust Speed 14 mph    
Visibility 7 miles    
Events      
T = Trace of Precipitation, MM = Missing Value Source: NWS Daily Summary

Daily Weather History Graph

Daily Weather History Graph

Search for Another Location

Airport or City:

Trip Planner

Search our weather history database for the weather conditions in past years. The results will help you decide how hot, cold, wet, or windy it might be!

Date:

Astronomy

Oct. 27, 2013 Rise Set
Actual Time 7:25 AM CDT 6:24 PM CDT
Civil Twilight 7:00 AM CDT 6:49 PM CDT
Nautical Twilight 6:31 AM CDT 7:18 PM CDT
Astronomical Twilight 6:02 AM CDT 7:47 PM CDT
Moon 12:43 AM CDT (10/27) 2:14 PM CDT (10/27)
Length of Visible Light 11h 49m
Length of Day
10h 58m
Last Quarter, 43% of the Moon is Illuminated
Oct 27
Last Quarter
Nov 3
New
Nov 9
First Quarter
Nov 17
Full
Nov 25
Last Quarter

Hourly Weather History & Observations

Time (CDT) Temp. Dew Point Humidity Pressure Visibility Wind Dir Wind Speed Gust Speed Precip Events Conditions
12:53 AM 53.1 °F 52.0 °F 96% 30.12 in 8.0 mi Calm Calm - N/A   Partly Cloudy
1:53 AM 53.1 °F 52.0 °F 96% 30.10 in 8.0 mi Calm Calm - N/A   Scattered Clouds
2:53 AM 53.1 °F 53.1 °F 100% 30.07 in 6.0 mi Calm Calm - N/A   Clear
3:53 AM 54.0 °F 53.1 °F 97% 30.01 in 8.0 mi ENE 8.1 mph - 0.00 in   Partly Cloudy
4:53 AM 55.0 °F 53.1 °F 93% 30.04 in 10.0 mi NW 3.5 mph - 0.00 in   Overcast
5:01 AM 55.4 °F 53.6 °F 94% 30.03 in 9.0 mi North 3.5 mph - N/A   Overcast
5:11 AM 55.4 °F 53.6 °F 94% 30.04 in 9.0 mi NW 6.9 mph - N/A   Overcast
5:53 AM 54.0 °F 54.0 °F 100% 30.05 in 6.0 mi NNW 3.5 mph - 0.00 in   Overcast
6:20 AM 55.4 °F 53.6 °F 94% 30.05 in 6.0 mi Calm Calm - N/A   Overcast
6:42 AM 53.6 °F 53.6 °F 100% 30.05 in 5.0 mi Calm Calm - N/A   Overcast
6:53 AM 54.0 °F 54.0 °F 100% 30.04 in 5.0 mi Calm Calm - N/A   Overcast
7:53 AM 53.1 °F 53.1 °F 100% 30.06 in 2.5 mi Calm Calm - N/A   Overcast
8:19 AM 53.6 °F 53.6 °F 100% 30.06 in 3.0 mi SW 3.5 mph - N/A   Overcast
8:53 AM 55.0 °F 55.0 °F 100% 30.07 in 5.0 mi WSW 3.5 mph - N/A   Overcast
9:20 AM 57.2 °F 55.4 °F 94% 30.09 in 6.0 mi West 6.9 mph - N/A   Overcast
9:29 AM 57.2 °F 55.4 °F 94% 30.09 in 6.0 mi WNW 5.8 mph - N/A   Overcast
9:53 AM 57.0 °F 55.0 °F 93% 30.10 in 6.0 mi WNW 3.5 mph - N/A   Overcast
10:53 AM 59.0 °F 55.9 °F 90% 30.11 in 9.0 mi West 6.9 mph - N/A   Overcast
11:53 AM 61.0 °F 55.9 °F 83% 30.11 in 10.0 mi WNW 10.4 mph - N/A   Overcast
12:09 PM 60.8 °F 55.4 °F 82% 30.11 in 10.0 mi West 6.9 mph - N/A   Overcast
12:53 PM 62.1 °F 55.9 °F 80% 30.10 in 10.0 mi WNW 3.5 mph - N/A   Overcast
1:13 PM 62.6 °F 55.4 °F 77% 30.09 in 10.0 mi WNW 5.8 mph - N/A   Overcast
1:53 PM 62.1 °F 57.0 °F 84% 30.07 in 10.0 mi NW 3.5 mph - N/A   Overcast
2:10 PM 62.6 °F 57.2 °F 82% 30.07 in 10.0 mi WNW 3.5 mph - N/A   Overcast
2:43 PM 62.6 °F 57.2 °F 82% 30.07 in 10.0 mi North 3.5 mph - N/A   Overcast
2:53 PM 63.0 °F 57.0 °F 81% 30.07 in 10.0 mi NNW 4.6 mph - N/A   Overcast
3:17 PM 62.6 °F 57.2 °F 82% 30.07 in 10.0 mi NNW 4.6 mph - N/A   Overcast
3:53 PM 64.0 °F 57.0 °F 78% 30.06 in 10.0 mi North 5.8 mph - N/A   Overcast
4:53 PM 66.0 °F 57.0 °F 73% 30.06 in 10.0 mi NNE 3.5 mph - N/A   Clear
5:53 PM 64.0 °F 57.0 °F 78% 30.05 in 10.0 mi Calm Calm - N/A   Mostly Cloudy
6:53 PM 57.0 °F 55.9 °F 96% 30.05 in 10.0 mi Calm Calm - N/A   Clear
7:53 PM 57.0 °F 55.9 °F 96% 30.05 in 10.0 mi Calm Calm - N/A   Scattered Clouds
8:39 PM 55.4 °F 55.4 °F 100% 30.07 in 1.8 mi Calm Calm - N/A   Clear
8:47 PM 55.4 °F 55.4 °F 100% 30.07 in 3.0 mi Calm Calm - N/A   Clear
8:53 PM 54.0 °F 54.0 °F 100% 30.06 in 2.5 mi Calm Calm - N/A   Clear
9:08 PM 55.4 °F 53.6 °F 94% 30.07 in 5.0 mi Calm Calm - N/A   Clear
9:23 PM 53.6 °F 53.6 °F 100% 30.07 in 1.8 mi Calm Calm - N/A   Clear
9:33 PM 53.6 °F 53.6 °F 100% 30.07 in 3.0 mi Calm Calm - N/A   Clear
9:53 PM 52.0 °F 52.0 °F 100% 30.07 in 10.0 mi Calm Calm - N/A   Clear
10:53 PM 52.0 °F 51.1 °F 97% 30.09 in 3.0 mi Calm Calm - 0.01 in   Clear
11:08 PM 51.8 °F 51.8 °F 100% 30.09 in 1.5 mi Calm Calm - N/A   Mostly Cloudy
11:16 PM 51.8 °F 51.8 °F 100% 30.09 in 0.8 mi Calm Calm - N/A   Scattered Clouds
11:20 PM 51.8 °F 51.8 °F 100% 30.09 in 2.5 mi Calm Calm - N/A   Scattered Clouds
11:27 PM 51.8 °F 51.8 °F 100% 30.09 in 10.0 mi Calm Calm - N/A   Scattered Clouds
11:53 PM 53.1 °F 52.0 °F 96% 30.08 in 7.0 mi Calm Calm - N/A   Overcast